Starlink 4070

operational
NORAD ID: 52664 Int'l Des: 2022-053 Owner: SPXS Country: US Constellation: starlink
LEOCIRCULAR

Über Starlink 4070

Beschreibung wird geladen...

Live-Position

3D-Globus wird geladen...

Nächste Überflüge

Höhenverlauf

Altitude vs Time

uPlot chart will show altitude changes over time

Zweizeiliger Elementsatz

1 52664U 22053J 25257.34912134 -.00000502 00000-0 -13479-4 0 9990
2 52664 53.2149 225.7439 0001431 87.7589 272.3567 15.08831294184426
Epoch: 14. Sept. 2025 • Age: 25 hours

Aktueller Status

Höhe 540.2 km
Geschwindigkeit 7.59 km/s
Subsatellitenpunkt 3.25°N, 90.88°W
Startdatum 18. Mai 2022
Alter 3.3 years
Typ internet

Technische Details

Klassifizierung Payload
Masse 297.00 kg
Trockenmasse 275.00 kg
Gesamtmasse 297.00 kg
Länge 0.20 m
Durchmesser 2.80 m
Spannweite 9.00 m
Form Box + pan
Hersteller SPXS
Bus-Typ Starlink
Phasenstatus In Orbit
Besitzer/Staat SPXS/US

Große Konstellationen

Loading constellations...